Погода в Колтубанке

Россия / Оренбургская область     52˚56′12″N   51˚54′13″E
темп.,
°C
ветер,
м/с
пор.,
м/с
влажн.,
%
обл.,
%
осадки,
мм/ч
давл.,
гПа
погр.,
м
16 января, сб
сб1623:00−6˚в4992100 0.0 1005374
02:00−5˚вюв51093100 1.1 1001483
05:00−4˚юв51296100 2.6 998559
08:00−2˚ю41095100 2.4 998559
11:00−6˚юз51191100 2.4 1001755
14:00−9˚юз71388100 0.1 1004822
17:00−9˚ююз61488100 0.1 1006818
20:00−8˚ююз61589100 0.1 1006787
17 января, вс
вс1723:00−6˚ююз61390100 0.1 1005875
02:00−9˚юз6148898 0.3 1005625
05:00−13˚юз6139099 0.4 1007577
08:00−15˚юз61392100 0.1 1008566
11:00−16˚зюз51193100 0.3 1011432
14:00−16˚зюз489296 0.0 1012347
17:00−17˚юз369477 0.0 1014246
20:00−22˚зюз129713 0.0 101620
18 января, пн
пн1823:00−24˚з119813 0.0 101720
02:00−24˚ю11980 0.0 101820
05:00−24˚в119820 0.0 101820
08:00−23˚в229692 0.0 101820
11:00−21˚всв229594 0.0 101873
14:00−16˚всв1288100 0.0 1018231
17:00−17˚св2492100 0.0 1016232
20:00−17˚св3690100 0.0 1015235
19 января, вт
вт1923:00−16˚св3792100 0.1 1013269
02:00−15˚св3792100 0.0 1012285
05:00−14˚ссв3792100 0.0 1010331
08:00−14˚с4694100 0.3 1009390
11:00−15˚ссв3695100 1.4 1009293
14:00−14˚ссз3495100 1.2 1008359
17:00−14˚сз3595100 2.6 1008382
20:00−16˚зсз4796100 1.3 1009413
20 января, ср
ср2023:00−17˚з3796100 2.1 1010401
02:00−17˚зюз4796100 0.6 1011501
05:00−18˚з3796100 1.1 1011402
08:00−18˚зюз3697100 0.4 1013309
11:00−18˚зюз3596100 0.6 1014310
14:00−16˚з2492100 0.2 1016452
17:00−17˚зсз2495100 0.3 1017341
20:00−20˚зсз239998 0.1 102069